Nellis AFB, NV

3:39 AM PDT on April 25, 2018 (GMT -0700)
Nellis Air Force Base

Weather History for KLSV - September, 2013

Change the Weather History Date:

Friday, September 6, 2013

  Actual Average Record
Temperature  
Mean Temperature 89 °F -  
Max Temperature 101 °F 95 °F 103 °F (2008)
Min Temperature 79 °F 71 °F 62 °F (2004)
Cooling Degree Days 24    
Growing Degree Days 39 (Base 50)    
Moisture  
Dew Point 55 °F    
Average Humidity 32    
Maximum Humidity 44    
Minimum Humidity 21    
Precipitation  
Precipitation 0.00 in - - ()
Sea Level Pressure  
Sea Level Pressure 29.83 in    
Wind  
Wind Speed 5 mph (SSE)    
Max Wind Speed 24 mph    
Max Gust Speed 31 mph    
Visibility 10 miles    
Events      
Averages and records for this station are not official NWS values.
T = Trace of Precipitation, MM = Missing Value Source: NWS Daily Summary

Daily Weather History Graph

Daily Weather History Graph

Search for Another Location

Airport or City:

Astronomy

Sep. 06, 2013 Rise Set
Actual Time 6:15 AM PDT 7:00 PM PDT
Civil Twilight 5:49 AM PDT 7:26 PM PDT
Nautical Twilight 5:18 AM PDT 7:56 PM PDT
Astronomical Twilight 4:47 AM PDT 8:28 PM PDT
Moon 7:28 AM PDT (9/6) 7:31 PM PDT (9/6)
Length of Visible Light 13h 36m
Length of Day
12h 44m
New Moon, 2% of the Moon is Illuminated
Sep 6
New Moon
Sep 12
First Quarter
Sep 19
Full
Sep 26
Last Quarter
Oct 4
New

Hourly Weather History & Observations

Time (PDT) Temp. Heat Index Dew Point Humidity Pressure Visibility Wind Dir Wind Speed Gust Speed Precip Events Conditions
12:58 AM 87.6 °F 86.7 °F 58.1 °F 37% 29.83 in 10.0 mi Calm Calm - N/A   Clear
1:58 AM 83.5 °F 82.6 °F 55.8 °F 39% 29.83 in 10.0 mi ENE 4.6 mph - N/A   Clear
2:58 AM 82.4 °F 82.0 °F 56.8 °F 42% 29.83 in 10.0 mi ENE 3.5 mph - N/A   Clear
3:58 AM 81.9 °F 81.4 °F 55.8 °F 41% 29.83 in 10.0 mi Calm Calm - N/A   Clear
4:58 AM 82.2 °F 81.8 °F 56.1 °F 41% 29.83 in 10.0 mi ENE 2.3 mph - N/A   Clear
5:58 AM 79.2 °F - 55.6 °F 44% 29.85 in 10.0 mi ENE 6.9 mph - N/A   Clear
6:58 AM 79.5 °F - 55.2 °F 43% 29.87 in 10.0 mi ENE 4.6 mph - N/A   Clear
7:58 AM 85.5 °F 84.0 °F 54.9 °F 35% 29.87 in 10.0 mi ENE 4.6 mph - N/A   Clear
8:58 AM 88.7 °F 87.3 °F 56.8 °F 34% 29.87 in 10.0 mi SW 3.5 mph - N/A   Clear
9:58 AM 93.6 °F 91.8 °F 55.4 °F 28% 29.86 in 10.0 mi ESE 3.5 mph - N/A   Clear
10:58 AM 96.1 °F 94.1 °F 55.0 °F 25% 29.86 in 10.0 mi ESE 5.8 mph - N/A   Clear
11:58 AM 98.2 °F 96.3 °F 54.5 °F 23% 29.85 in 10.0 mi Calm Calm - N/A   Clear
12:58 PM 99.9 °F 97.7 °F 53.6 °F 21% 29.82 in 10.0 mi Variable 5.8 mph - N/A   Clear
1:58 PM 99.5 °F 97.6 °F 54.0 °F 22% 29.79 in 10.0 mi Variable 2.3 mph - N/A   Clear
2:51 PM 98.6 °F 97.2 °F 55.4 °F 24% 29.85 in 10.0 mi SSW 19.6 mph - N/A   Clear
2:58 PM 98.2 °F 97.1 °F 56.3 °F 25% 29.78 in 10.0 mi SW 24.2 mph - N/A   Clear
3:58 PM 93.9 °F 92.0 °F 55.6 °F 27% 29.79 in 10.0 mi WSW 18.4 mph 31.1 mph N/A   Scattered Clouds
4:58 PM 93.4 °F - 51.4 °F 24% 29.80 in 10.0 mi SSW 15.0 mph - N/A   Scattered Clouds
5:58 PM 90.5 °F 88.5 °F 54.9 °F 30% 29.79 in 10.0 mi SE 2.3 mph - N/A   Partly Cloudy
6:58 PM 90.7 °F 88.3 °F 53.1 °F 28% 29.79 in 10.0 mi SW 9.2 mph - N/A   Partly Cloudy
7:58 PM 89.2 °F 87.1 °F 53.6 °F 30% 29.79 in 10.0 mi SW 3.5 mph - N/A   Partly Cloudy
8:58 PM 86.9 °F 85.1 °F 54.7 °F 33% 29.81 in 10.0 mi South 10.4 mph - N/A   Partly Cloudy
9:58 PM 86.5 °F 85.9 °F 59.2 °F 39% 29.83 in 10.0 mi SSW 12.7 mph - N/A   Scattered Clouds
10:58 PM 84.9 °F 83.9 °F 56.7 °F 38% 29.82 in 10.0 mi South 2.3 mph - N/A   Clear
11:58 PM 84.0 °F 83.0 °F 55.6 °F 38% 29.81 in 10.0 mi SSW 5.8 mph - N/A   Partly Cloudy